Weather in Bagerovo

Russia / Republic of Crimea     45°22′24″N   36°17′45″E
temp.,
°C
wind,
m/s
gust,
m/s
humid.,
%
clouds,
%
prec.,
mm/h
press.,
hPa
HPBL,
m
19 june, sat
sat1900:00+18ne35860 0.0 101692
03:00+19ne47920 0.0 1015145
06:00+20ne48890 0.0 1014235
09:00+24ne68720 0.0 1014708
12:00+26ne78640 0.0 1013919
15:00+24ne687231 0.0 1012466
18:00+26ne697322 0.0 1011734
21:00+23ne510834 0.1 1010202
20 june, sun
sun2000:00+23ene612740 0.0 1009350
03:00+21e7127523 0.0 1009313
06:00+21ese7118613 0.1 1010452
09:00+23se67750 0.1 1011522
12:00+25se65700 0.0 1011748
15:00+25se54650 0.0 1011737
18:00+24se33670 0.0 1011425
21:00+20se11860 0.0 101215
21 june, mon
mon2100:00+20ese11820 0.0 101113
03:00+20nw22770 0.0 101015
06:00+20nnw23780 0.0 101166
09:00+26nne34600 0.0 1011530
12:00+29nne44550 0.0 1010783
15:00+29nne55550 0.0 1010754
18:00+27nne56638 0.0 1010469
21:00+22n35790 0.0 101080
22 june, tue
tue2200:00+22nne23810 0.0 100935
03:00+22ene11860 0.0 100912
06:00+21sse369167 0.0 1010246
09:00+24sse677157 0.0 1011523
12:00+25se66680 0.0 1011702
15:00+26se44650 0.0 1011681
18:00+25ese34660 0.0 1011444
21:00+21s11830 0.0 101215
23 june, wed
wed2300:00+21sw22810 0.0 101222
03:00+20nw22830 0.0 101116
06:00+22n2279100 0.0 101255
09:00+24se3473100 0.0 1013323
12:00+28nnw2255100 0.1 1012525
15:00+26ssw1262100 0.1 1013590
18:00+26n3460100 0.0 1014391
21:00+22nw237798 0.0 101434